Location: Apollinopolis Magna
(24.9792°N, 32.8772°E)
Time: 05:19:57
(UTC+00:00)

Cosmos 1707 Rocket - Pass Details

Date: 02 March 2021
Orbit: 604 x 632 km, 82.5° (Epoch: 12 April)

Event Time Altitude Azimuth Distance (km) Brightness Sun altitude
Rises 16:08:59 0° 2° (N) 2,879 6.9 -4.8°
Reaches altitude 10° 16:11:17 10° 9° (N) 1,968 6.0 -5.3°
Maximum altitude 16:15:29 47° 83° (E) 812 3.8 -6.3°
Drops below altitude 10° 16:19:37 10° 157° (SSE) 1,946 5.9 -7.2°
Sets 16:21:53 0° 163° (SSE) 2,844 6.8 -7.7°
